TimeCST,TemperatureF,Dew PointF,Humidity,Sea Level PressureIn,VisibilityMPH,Wind Direction,Wind SpeedMPH,Gust SpeedMPH,PrecipitationIn,Events,Conditions,WindDirDegrees,DateUTC
12:53 AM,21.0,19.9,96,30.29,6.0,SW,3.5,-,N/A,,Clear,230,2013-01-03 06:53:00
2:53 AM,21.0,19.9,96,30.32,5.0,West,5.8,-,N/A,,Clear,270,2013-01-03 08:53:00
3:53 AM,21.0,19.9,96,30.33,6.0,Calm,Calm,-,N/A,,Clear,0,2013-01-03 09:53:00
4:53 AM,19.0,18.0,96,30.35,4.0,Calm,Calm,-,N/A,,Clear,0,2013-01-03 10:53:00
5:53 AM,21.9,21.0,96,30.37,5.0,Calm,Calm,-,N/A,,Overcast,0,2013-01-03 11:53:00
6:53 AM,19.9,19.0,96,30.39,5.0,NW,3.5,-,N/A,,Clear,310,2013-01-03 12:53:00
7:53 AM,19.9,19.0,96,30.40,4.0,Calm,Calm,-,N/A,,Clear,0,2013-01-03 13:53:00
8:53 AM,27.0,26.1,96,30.42,6.0,NW,3.5,-,N/A,,Clear,320,2013-01-03 14:53:00
9:53 AM,32.0,28.0,85,30.44,10.0,NW,3.5,-,N/A,,Clear,320,2013-01-03 15:53:00
10:53 AM,34.0,30.0,85,30.45,10.0,Calm,Calm,-,N/A,,Clear,0,2013-01-03 16:53:00
11:53 AM,37.0,28.0,70,30.43,10.0,NW,4.6,-,N/A,,Clear,320,2013-01-03 17:53:00
12:53 PM,39.0,27.0,62,30.40,10.0,Variable,3.5,-,N/A,,Partly Cloudy,0,2013-01-03 18:53:00
1:53 PM,41.0,26.1,55,30.38,10.0,North,6.9,-,N/A,,Partly Cloudy,350,2013-01-03 19:53:00
2:53 PM,42.1,25.0,51,30.37,10.0,NNW,6.9,-,N/A,,Clear,340,2013-01-03 20:53:00
3:53 PM,39.9,23.0,51,30.39,10.0,Calm,Calm,-,N/A,,Clear,0,2013-01-03 21:53:00
4:53 PM,37.0,25.0,62,30.41,10.0,WNW,3.5,-,N/A,,Clear,290,2013-01-03 22:53:00
5:53 PM,33.1,24.1,70,30.41,10.0,NW,5.8,-,N/A,,Clear,310,2013-01-03 23:53:00
6:53 PM,32.0,24.1,73,30.43,10.0,NW,5.8,-,N/A,,Clear,310,2013-01-04 00:53:00
7:53 PM,28.9,23.0,78,30.43,10.0,Calm,Calm,-,N/A,,Partly Cloudy,0,2013-01-04 01:53:00
8:53 PM,27.0,23.0,85,30.43,10.0,Calm,Calm,-,N/A,,Overcast,0,2013-01-04 02:53:00
9:53 PM,28.9,25.0,85,30.43,10.0,South,3.5,-,N/A,,Overcast,180,2013-01-04 03:53:00
10:53 PM,30.9,27.0,85,30.43,10.0,NNW,4.6,-,N/A,,Overcast,340,2013-01-04 04:53:00
11:53 PM,30.0,26.1,85,30.43,10.0,NNW,4.6,-,N/A,,Overcast,340,2013-01-04 05:53:00